Back to catalog

FENGYUN 1C DEB

AliveSSO
NORAD 30880·DEBRIS·🇨🇳 China

Launched May 10, 1999 from Taiyuan Satellite Launch Center

Loading…

Next Passes (next 24 hours)

TLE

FreshSource: Space-Track

Epoch: Sep 14, 2026, 03:32 UTC

1 30880U 99025AXS 26257.14780771  .00001662  00000-0  69944-3 0  9991
2 30880  98.7779 334.8478 0020745  29.2027 331.0309 14.27034103  6386

Track FENGYUN 1C DEB in real time with AllMySat

Download on the App Store